Plovdiv, Bulgaria

8:30 AM EET on December 06, 2019 (GMT +0200)
Plovdiv

Weather History for LBPD - October, 2019

Change the Weather History Date:

Saturday, October 12, 2019

  Actual Average Record
Temperature  
Mean Temperature 60 °F -  
Max Temperature 75 °F - - ()
Min Temperature 46 °F - - ()
Degree Days  
Heating Degree Days 4    
Growing Degree Days 10 (Base 50)    
Moisture  
Dew Point 49 °F    
Average Humidity 67    
Maximum Humidity 93    
Minimum Humidity 41    
Precipitation  
Precipitation 0.00 in - - ()
Sea Level Pressure  
Sea Level Pressure 30.29 in    
Wind  
Wind Speed 4 mph ()    
Max Wind Speed 10 mph    
Max Gust Speed -    
Visibility 6.2 miles    
Events      
T = Trace of Precipitation, MM = Missing Value Source: Averaged Metar Reports

Daily Weather History Graph

Daily Weather History Graph

Search for Another Location

Airport or City:

Astronomy

Oct. 12, 2019 Rise Set
Actual Time 7:29 AM EEST 6:44 PM EEST
Civil Twilight 7:01 AM EEST 7:12 PM EEST
Nautical Twilight 6:29 AM EEST 7:45 PM EEST
Astronomical Twilight 5:56 AM EEST 8:17 PM EEST
Moon 6:34 PM EEST (10/12) 5:45 AM EEST (10/12)
Length of Visible Light 12h 11m
Length of Day
11h 15m
Waxing Gibbous, 98% of the Moon is Illuminated
Oct 12
Waxing Gibbous
Oct 14
Full
Oct 21
Last Quarter
Oct 28
New
Nov 4
First Quarter

Hourly Weather History & Observations

Time (EEST) Temp. Windchill Dew Point Humidity Pressure Visibility Wind Dir Wind Speed Gust Speed Precip Events Conditions
12:00 AM 64.4 °F - 48.2 °F 56% 30.27 in 6.2 mi East 10.4 mph - N/A   Mostly Cloudy
12:30 AM 60.8 °F - 48.2 °F 63% 30.27 in 6.2 mi East 9.2 mph - N/A   Unknown
1:00 AM 57.2 °F - 46.4 °F 67% 30.27 in 6.2 mi East 4.6 mph - N/A   Unknown
1:30 AM 55.4 °F - 46.4 °F 72% 30.27 in 6.2 mi NE 4.6 mph - N/A   Unknown
2:00 AM 53.6 °F - 46.4 °F 77% 30.30 in 6.2 mi NW 4.6 mph - N/A   Unknown
2:30 AM 51.8 °F - 44.6 °F 76% 30.30 in 6.2 mi West 4.6 mph - N/A   Unknown
3:00 AM 51.8 °F - 44.6 °F 76% 30.30 in 6.2 mi WSW 3.5 mph - N/A   Unknown
3:30 AM 55.4 °F - 46.4 °F 72% 30.30 in 6.2 mi SSW 2.3 mph - N/A   Unknown
4:00 AM 53.6 °F - 44.6 °F 72% 30.30 in 6.2 mi South 3.5 mph - N/A   Unknown
4:30 AM 53.6 °F - 46.4 °F 77% 30.30 in 6.2 mi SE 4.6 mph - N/A   Unknown
5:00 AM 48.2 °F - 44.6 °F 87% 30.30 in 6.2 mi Calm Calm - N/A   Unknown
5:30 AM 48.2 °F - 44.6 °F 87% 30.30 in 6.2 mi Calm Calm - N/A   Unknown
6:00 AM 48.2 °F - 44.6 °F 87% 30.33 in 6.2 mi Calm Calm - N/A   Unknown
6:30 AM 46.4 °F - 44.6 °F 93% 30.33 in 6.2 mi Calm Calm - N/A   Unknown
7:00 AM 48.2 °F - 44.6 °F 87% 30.33 in 6.2 mi SSE 4.6 mph - N/A   Unknown
7:30 AM 48.2 °F - 44.6 °F 87% 30.33 in 6.2 mi SSE 3.5 mph - N/A   Unknown
8:00 AM 46.4 °F 45.2 °F 44.6 °F 93% 30.33 in 6.2 mi WSW 3.5 mph - N/A   Unknown
8:30 AM 51.8 °F - 48.2 °F 88% 30.33 in 6.2 mi Calm Calm - N/A   Unknown
9:00 AM 55.4 °F - 50.0 °F 82% 30.33 in 6.2 mi Calm Calm - N/A   Unknown
9:30 AM 57.2 °F - 50.0 °F 77% 30.36 in 6.2 mi ENE 3.5 mph - N/A   Unknown
10:00 AM 59.0 °F - 50.0 °F 72% 30.36 in 6.2 mi ENE 4.6 mph - N/A   Unknown
10:30 AM 60.8 °F - 51.8 °F 72% 30.36 in 6.2 mi East 4.6 mph - N/A   Unknown
11:00 AM 62.6 °F - 51.8 °F 68% 30.36 in 6.2 mi NNE 3.5 mph - N/A   Unknown
11:30 AM 64.4 °F - 50.0 °F 59% 30.33 in 6.2 mi Variable 2.3 mph - N/A   Unknown
12:00 PM 66.2 °F - 50.0 °F 56% 30.33 in 6.2 mi Variable 2.3 mph - N/A   Unknown
12:30 PM 66.2 °F - 50.0 °F 56% 30.33 in 6.2 mi Variable 1.2 mph - N/A   Unknown
1:00 PM 68.0 °F - 48.2 °F 49% 30.33 in 6.2 mi Variable 3.5 mph - N/A   Unknown
1:30 PM 69.8 °F - 50.0 °F 49% 30.30 in 6.2 mi Variable 3.5 mph - N/A   Unknown
2:00 PM 69.8 °F - 50.0 °F 49% 30.30 in 6.2 mi Variable 5.8 mph - N/A   Unknown
2:30 PM 71.6 °F - 50.0 °F 46% 30.27 in 6.2 mi South 4.6 mph - N/A   Unknown
3:00 PM 71.6 °F - 50.0 °F 46% 30.27 in 6.2 mi Calm Calm - N/A   Unknown
3:30 PM 73.4 °F - 50.0 °F 44% 30.27 in 6.2 mi NE 3.5 mph - N/A   Unknown
4:00 PM 73.4 °F - 50.0 °F 44% 30.24 in 6.2 mi East 4.6 mph - N/A   Unknown
4:30 PM 73.4 °F - 50.0 °F 44% 30.24 in 6.2 mi Variable 3.5 mph - N/A   Unknown
5:00 PM 75.2 °F - 50.0 °F 41% 30.24 in 6.2 mi Calm Calm - N/A   Unknown
5:30 PM 73.4 °F - 51.8 °F 47% 30.24 in 6.2 mi Variable 2.3 mph - N/A   Unknown
6:00 PM 73.4 °F - 51.8 °F 47% 30.24 in 6.2 mi ENE 3.5 mph - N/A   Unknown
6:30 PM 71.6 °F - 51.8 °F 50% 30.24 in 6.2 mi East 4.6 mph - N/A   Unknown
7:00 PM 68.0 °F - 51.8 °F 56% 30.24 in 6.2 mi Calm Calm - N/A   Unknown
7:30 PM 64.4 °F - 51.8 °F 64% 30.24 in 6.2 mi South 3.5 mph - N/A   Unknown
8:00 PM 62.6 °F - 51.8 °F 68% 30.24 in 6.2 mi South 6.9 mph - N/A   Unknown
8:30 PM 64.4 °F - 51.8 °F 64% 30.24 in 6.2 mi SSE 3.5 mph - N/A   Unknown
9:00 PM 60.8 °F - 50.0 °F 68% 30.27 in 6.2 mi Calm Calm - N/A   Unknown
10:00 PM 59.0 °F - 50.0 °F 72% 30.27 in 6.2 mi Variable 2.3 mph - N/A   Unknown
10:30 PM 59.0 °F - 50.0 °F 72% 30.27 in 6.2 mi SW 3.5 mph - N/A   Unknown
11:00 PM 57.2 °F - 50.0 °F 77% 30.27 in 6.2 mi West 3.5 mph - N/A   Unknown
11:30 PM 53.6 °F - 48.2 °F 82% 30.27 in 6.2 mi WSW 4.6 mph - N/A   Unknown